Regional Weather Roundup
Issued by NWS

Home | Current Version | Previous Version | Graphics & Text | Print | Product List | Glossary On
Versions: 1 2 3 4 5 6 7 8 9 10 11 12 13 14 15 16 17 18 19 20 21 22 23 24 25 26 27 28 29 30 31 32 33 34 35 36 37 38 39 40 41 42 43 44 45 46 47 48 49 50
268
ASUS43 KFSD 232210
RWRSD

WEATHER ROUNDUP FOR SOUTH DAKOTA
NATIONAL WEATHER SERVICE SIOUX FALLS SD
500 PM CDT TUE AUG 23 2016

NOTE: "FAIR" INDICATES FEW OR NO CLOUDS BELOW 12,000 FEET WITH NO
SIGNIFICANT WEATHER AND/OR OBSTRUCTIONS TO VISIBILITY.


SDZ001>005-009-010-012>017-232300-
NORTHWEST AND NORTH CENTRAL SOUTH DAKOTA

CITY           SKY/WX    TMP DP  RH WIND       PRES   REMARKS
BUFFALO          N/A     79  32  18 NW20G35   29.90R
FAITH            N/A     83  33  16 NW24G31   29.89R
MOBRIDGE       SUNNY     85  40  20 N25G31    29.78R
$$

SDZ012>016-024>037-041>051-057-063-072>074-232300-
SOUTHWEST AND SOUTH CENTRAL SOUTH DAKOTA

CITY           SKY/WX    TMP DP  RH WIND       PRES   REMARKS
RAPID CTY ARPT MOSUNNY   78  32  18 N17       29.95R
PIERRE         MOSUNNY   85  50  29 N24G35    29.78R
CUSTER         CLOUDY    76  23  14 W12       30.07R
ELLSWORTH AFB  SUNNY     81  31  16 N22G29    29.95R
PHILIP         MOSUNNY   86  32  14 N24G30    29.86R
PINE RIDGE     SUNNY     82  34  17 N14G21    29.95R
WINNER         FAIR      88  56  33 NW18      29.81R
$$

SDZ004>011-016>023-039-040-232300-
NORTHEAST SOUTH DAKOTA

CITY           SKY/WX    TMP DP  RH WIND       PRES   REMARKS
ABERDEEN       SUNNY     86  66  51 SE21G31   29.69F
WATERTOWN      MOSUNNY   78  67  68 S17G29    29.80R
BROOKINGS      CLOUDY    72  67  84 S14       29.83R
SISSETON         N/A     84  63  49 S18G25    29.75R
$$

SDZ017-020-022-023-036>040-048>070-232300-
SOUTHEAST SOUTH DAKOTA

CITY           SKY/WX    TMP DP  RH WIND       PRES   REMARKS
SIOUX FALLS    CLOUDY    71  66  84 S10       29.84R
HURON          SUNNY     82  70  66 S13G22    29.74R
CHAMBERLAIN    SUNNY     89  59  36 NW14      29.76R
MITCHELL       SUNNY     82  70  66 S15       29.76S
YANKTON        CLOUDY    77  70  78 E10       29.79R
$$

ABBREVIATIONS USED IN REMARKS
   TC - TEMPERATURE IN CELSIUS
  WCI - WIND CHILL INDEX
   HX - HEAT INDEX
  VSB - VISIBILITY





USA.gov is the U.S. government's official web portal to all federal, state and local government web resources and services.